{"data":{"norad_id":60269,"epoch":"2026-09-21T06:17:36.879360Z","epoch_age_seconds":115286,"freshness":"FRESH","line1":"1 60269U 24131Q   26264.26223240 -.00000600  00000+0 -75716-5 0  9993","line2":"2 60269  53.1591 222.4539 0000702  89.8641 270.2441 15.31703548121732","mean_motion":15.31703548,"eccentricity":7.02e-5,"inclination_deg":53.1591,"raan_deg":222.4539,"arg_perigee_deg":89.8641,"mean_anomaly_deg":270.2441,"bstar":-7.5716e-6,"rev_number":12173,"period_min":94.012970191279,"perigee_km":470.24862842008,"apogee_km":471.21020926529,"semimajor_km":6848.8664188427,"source":"CELESTRAK","updated_at":"2026-09-22T09:00:49.188994Z"}}